This is the latest recevied weather packets stored in our database for station/object DO6DD-13. If no packets are shown the sender has not sent any weather packets the latest 10 day(s).
| Time | Temp. | Humidity | Pressure | Rain* | Wind** | Luminosity | Snow |
|---|---|---|---|---|---|---|---|
| 1777365023 | 11.11° C | 59% | 1025 hPa | - | - | 80 W/m² | - |
| 1777364422 | 11.11° C | 59% | 1025 hPa | - | - | 88 W/m² | - |
| 1777363822 | 11.11° C | 59% | 1025 hPa | - | - | 124 W/m² | - |
| 1777363222 | 11.11° C | 60% | 1025.1 hPa | - | - | 162 W/m² | - |
| 1777362621 | 10.56° C | 61% | 1025.1 hPa | - | - | 132 W/m² | - |
| 1777362021 | 10° C | 63% | 1024.9 hPa | - | - | 82 W/m² | - |
| 1777361420 | 10° C | 63% | 1024.9 hPa | - | - | 74 W/m² | - |
| 1777360819 | 9.44° C | 64% | 1024.8 hPa | - | - | 106 W/m² | - |
| 1777360219 | 9.44° C | 64% | 1024.8 hPa | - | - | 146 W/m² | - |
| 1777359619 | 9.44° C | 65% | 1024.8 hPa | - | - | 136 W/m² | - |
| 1777359018 | 8.89° C | 66% | 1024.7 hPa | - | - | 122 W/m² | - |
| 1777358417 | 8.33° C | 68% | 1024.8 hPa | - | - | 70 W/m² | - |
| 1777357817 | 8.33° C | 68% | 1024.8 hPa | - | - | 64 W/m² | - |
| 1777357216 | 7.78° C | 69% | 1024.7 hPa | - | - | 64 W/m² | - |
| 1777356616 | 7.22° C | 70% | 1024.6 hPa | - | - | 70 W/m² | - |
| 1777356026 | 6.67° C | 72% | 1024.5 hPa | - | - | 112 W/m² | - |
| 1777355425 | 6.67° C | 73% | 1024.5 hPa | - | - | 60 W/m² | - |
| 1777354825 | 6.11° C | 74% | 1024.5 hPa | - | - | 54 W/m² | - |
| 1777354224 | 6.11° C | 75% | 1024.4 hPa | - | - | 38 W/m² | - |
| 1777353624 | 5.56° C | 76% | 1024.3 hPa | - | - | 32 W/m² | - |
| 1777353023 | 5.56° C | 76% | 1024.1 hPa | - | - | 26 W/m² | - |
| 1777352423 | 5.56° C | 76% | 1023.9 hPa | - | - | 20 W/m² | - |
| 1777351832 | 5.56° C | 76% | 1023.8 hPa | - | - | 14 W/m² | - |
| 1777351222 | 5.56° C | 76% | 1023.7 hPa | - | - | 12 W/m² | - |
| 1777350621 | 5.56° C | 76% | 1023.6 hPa | - | - | 8 W/m² | - |
* Rain since midnight (hover to see other rain measurements)
** Current wind speed in m/s (hover to see current wind gust speed)